Regional Weather Roundup
Issued by NWS

Home | Current Version | Previous Version | Graphics & Text | Print | Product List | Glossary On
Versions: 1 2 3 4 5 6 7 8 9 10 11 12 13 14 15 16 17 18 19 20 21 22 23 24 25 26 27 28 29 30 31 32 33 34 35 36 37 38 39 40 41 42 43 44 45 46 47 48 49 50
000
ASUS43 KMKX 240610
RWRWI

WISCONSIN REGIONAL WEATHER ROUNDUP
NATIONAL WEATHER SERVICE MILWAUKEE/SULLIVAN WI
1200 AM CST WED JAN 24 2018

NOTE: "FAIR" INDICATES FEW OR NO CLOUDS BELOW 12,000 FEET WITH NO
SIGNIFICANT WEATHER AND/OR OBSTRUCTIONS TO VISIBILITY.

WIZ001-002-006>008-014>016-023>028-240700-
NORTHWEST WISCONSIN

CITY           SKY/WX    TMP DP  RH WIND       PRES   REMARKS
SUPERIOR ARPT  FAIR       8   4  86 CALM      30.19S
6HR MIN TEMP:   6; 6HR MAX TEMP:  18;

ASHLAND        CLOUDY    10   8  92 CALM      30.18F
6HR MIN TEMP:   5; 6HR MAX TEMP:  17;

HAYWARD        MOCLDY     5   0  79 CALM      30.16S
6HR MIN TEMP:   5; 6HR MAX TEMP:  20;

SIREN          FAIR       6   3  86 CALM      30.19S
6HR MIN TEMP:   6; 6HR MAX TEMP:  14;

CUMBERLAND     FAIR       5   1  85 CALM      30.16S
RICE LAKE      FAIR       2  -1  86 CALM      30.19S
6HR MIN TEMP:   1; 6HR MAX TEMP:  18;

CHETEK         FAIR       6   4  91 CALM      30.19R
6HR MIN TEMP:   5; 6HR MAX TEMP:  17;

LADYSMITH      MOCLDY    15  11  85 CALM      30.17S
6HR MIN TEMP:  15; 6HR MAX TEMP:  22;

EAU CLAIRE     FAIR      14  11  87 CALM      30.18S
6HR MIN TEMP:  13; 6HR MAX TEMP:  19;

MENOMONIE      FAIR      10   8  91 CALM      30.19S FOG
6HR MIN TEMP:   9; 6HR MAX TEMP:  18;

NEW RICHMOND   FAIR       4   1  83 CALM      30.19S
6HR MIN TEMP:   4; 6HR MAX TEMP:  13;

OSCEOLA        FAIR       8   5  89 CALM      30.22S
6HR MIN TEMP:   7; 6HR MAX TEMP:  13;

$$

WIZ003>005-009-010-017-018-240700-
NORTH CENTRAL WISCONSIN

CITY           SKY/WX    TMP DP  RH WIND       PRES   REMARKS
MANITOWISH WTR FAIR       2   2  96 CALM      30.12F
6HR MIN TEMP:   1; 6HR MAX TEMP:  18;

ARBOR VITAE    FAIR      11   9  90 CALM      30.12S
6HR MIN TEMP:  11; 6HR MAX TEMP:  19;

WOODRUFF       FAIR      11   9  90 CALM      30.12S
6HR MIN TEMP:  11; 6HR MAX TEMP:  19;

RHINELANDER    FAIR      10   8  92 N3        30.12S
6HR MIN TEMP:   6; 6HR MAX TEMP:  20;

EAGLE RIVER    MOCLDY     8   5  88 CALM      30.11S
6HR MIN TEMP:   8; 6HR MAX TEMP:  16;

LAND O LAKES   CLOUDY    11   8  88 CALM      30.13S
6HR MIN TEMP:   6; 6HR MAX TEMP:  15;

PHILLIPS       FAIR       4   2  93 CALM      30.12F
6HR MIN TEMP:   4; 6HR MAX TEMP:  19;

TOMAHAWK       FAIR      10   8  92 CALM      30.13S
6HR MIN TEMP:  10; 6HR MAX TEMP:  19;

MEDFORD        FAIR      16  11  81 NW3       30.13S
6HR MIN TEMP:  16; 6HR MAX TEMP:  20;

MERRILL        MOCLDY    17  12  79 N6        30.14S WCI   9
6HR MIN TEMP:  17; 6HR MAX TEMP:  21;

$$

WIZ029-030-035-036-043>047-240700-
CENTRAL WISCONSIN

CITY           SKY/WX    TMP DP  RH WIND       PRES   REMARKS
WAUSAU         CLOUDY    20  13  74 NW9       30.12R WCI   9
6HR MIN TEMP:  18; 6HR MAX TEMP:  22;

MOSINEE        FAIR      14  14 100 NW5       30.14S WCI   6
MARSHFIELD     CLOUDY    15  13  91 NW5       30.14R WCI   8
6HR MIN TEMP:  12; 6HR MAX TEMP:  21;

STEVENS POINT  FAIR      17  15  95 NW3       30.15R
6HR MIN TEMP:  15; 6HR MAX TEMP:  22;

WAUPACA        FAIR      21  17  84 NW3       30.16R
6HR MIN TEMP:  20; 6HR MAX TEMP:  29;

WAUTOMA        CLOUDY    22  19  89 W6        30.17R WCI  14
6HR MIN TEMP:  20; 6HR MAX TEMP:  25;

WISC RAPIDS    FAIR      17  13  84 NW5       30.17R WCI  10
6HR MIN TEMP:  16; 6HR MAX TEMP:  23;

CAMP DOUGLAS   NOT AVBL
$$

WIZ011>013-019>022-031-037>040-048>050-240700-
NORTHEAST WISCONSIN

CITY           SKY/WX    TMP DP  RH WIND       PRES   REMARKS
ANTIGO         FAIR       9   7  92 NW5       30.12R WCI   1
6HR MIN TEMP:   9; 6HR MAX TEMP:  18;

SHAWANO        FAIR      16  12  83 N6        30.16R WCI   8
6HR MIN TEMP:  16; 6HR MAX TEMP:  26;

OCONTO         FAIR      16  10  79 N5        30.17S WCI   9
6HR MIN TEMP:  16; 6HR MAX TEMP:  23;

STURGEON BAY   FAIR      16  12  84 NW10      30.16R WCI   4
6HR MIN TEMP:  16; 6HR MAX TEMP:  23;

GREEN BAY      FAIR      20  13  74 N7        30.16R WCI  11
6HR MIN TEMP:  20; 6HR MAX TEMP:  27;

MANITOWOC      FAIR      21  16  81 N12       30.15S WCI   9
6HR MIN TEMP:  21; 6HR MAX TEMP:  25;

APPLETON       FAIR      19  12  73 N6        30.13R WCI  11
CLINTONVILLE   FAIR      19  12  73 N6        30.15R WCI  11
OSHKOSH        CLOUDY    23  16  74 N7        30.14R WCI  15
6HR MIN TEMP:  22; 6HR MAX TEMP:  28;

$$

WIZ032>034-041-042-053>061-240700-
SOUTHWEST WISCONSIN

CITY           SKY/WX    TMP DP  RH WIND       PRES   REMARKS
LA CROSSE      FAIR      19  16  88 N5        30.20S WCI  12
6HR MIN TEMP:  18; 6HR MAX TEMP:  24;

SPARTA         CLOUDY    21  18  88 W3        30.20S
6HR MIN TEMP:  21; 6HR MAX TEMP:  22;

VIROQUA        CLOUDY    21  20  97 NW6       30.16S WCI  13
6HR MIN TEMP:  21; 6HR MAX TEMP:  22;

BOSCOBEL       CLOUDY    26  19  74 NW3       30.20S
6HR MIN TEMP:  25; 6HR MAX TEMP:  26;

PRAIRIE DU CHI CLOUDY    24  18  75 NW6       30.21R WCI  17
6HR MIN TEMP:  24; 6HR MAX TEMP:  25;

PLATTEVILLE    CLOUDY    24  23  93 N3        30.17S
6HR MIN TEMP:  24; 6HR MAX TEMP:  25;

$$

WIZ056-057-062-063-064-067-068-240700-
SOUTH CENTRAL WISCONSIN

CITY           SKY/WX    TMP DP  RH WIND       PRES   REMARKS
REEDSBURG      CLOUDY    23  18  82 N6        30.17R WCI  16
6HR MIN TEMP:  23; 6HR MAX TEMP:  24;

BARABOO/DELLS  CLOUDY    23  18  80 N6        30.16S WCI  16
6HR MIN TEMP:  23; 6HR MAX TEMP:  24;

LONE ROCK      CLOUDY    25  21  85 NW6       30.19S WCI  18
6HR MIN TEMP:  25; 6HR MAX TEMP:  26;

MINERAL POINT  CLOUDY    27  25  93 N5        30.15S WCI  21
MADISON        CLOUDY    25  20  81 N5        30.16R WCI  19
6HR MIN TEMP:  25; 6HR MAX TEMP:  26;

MIDDLETON      CLOUDY    26  21  79 NW5       30.16S WCI  21
6HR MIN TEMP:  26; 6HR MAX TEMP:  28;

WATERTOWN      CLOUDY    25  23  91 NW6       30.14S WCI  18
6HR MIN TEMP:  25; 6HR MAX TEMP:  26;

MONROE         CLOUDY    27  21  80 CALM      30.14S
JANESVILLE     CLOUDY    28  27  93 CALM      30.15S
$$

WIZ051-052-058>065-066-070>072-240700-
SOUTHEAST WISCONSIN

CITY           SKY/WX    TMP DP  RH WIND       PRES   REMARKS
MILWAUKEE      CLOUDY    28  23  81 W5        30.14S WCI  23
6HR MIN TEMP:  28; 6HR MAX TEMP:  30;

WAUKESHA       CLOUDY    25  21  86 W6        30.15S WCI  18
MILWAUKEE/TIMM CLOUDY    28  21  74 W6        30.15S WCI  22
RACINE         CLOUDY    27  23  85 W6        30.16R WCI  20
6HR MIN TEMP:  27; 6HR MAX TEMP:  29;

BURLINGTON     MOCLDY    26  21  82 W3        30.15S
6HR MIN TEMP:  26; 6HR MAX TEMP:  27;

KENOSHA        CLOUDY    26  22  84 W6        30.15R WCI  19
6HR MIN TEMP:  26; 6HR MAX TEMP:  28;

FOND DU LAC    CLOUDY    25  16  68 N8        30.15R WCI  16
6HR MIN TEMP:  25; 6HR MAX TEMP:  28;

SHEBOYGAN      FAIR      22  19  89 NW5       30.13S WCI  16
6HR MIN TEMP:  22; 6HR MAX TEMP:  28;

WEST BEND      CLOUDY    27  21  80 N5        30.14R WCI  21
JUNEAU         CLOUDY    25  21  83 CALM      30.15R
6HR MIN TEMP:  25; 6HR MAX TEMP:  26;

$$

LSZ147-162-240700-
LAKE SUPERIOR

STATION/POSITION TIME  TEMP    WIND        PRES    WAVE
                       AIR SEA DIR/SP/G            HT/PER
                 (UTC) (F)     (DEG/KT/KT) (MB)    (FT/S)
DEVILS ISLAND    0600   22      80/ 11/ 12 1023.4S
SAXON HARBOR     0540   13     180/  3/  4 1021.7F
$$

LMZ867-665-643>646-240700-
LAKE MICHIGAN

STATION/POSITION TIME  TEMP    WIND        PRES    WAVE
                       AIR SEA DIR/SP/G            HT/PER
                 (UTC) (F)     (DEG/KT/KT) (MB)    (FT/S)
NORTHPORT PIER   0540



USA.gov is the U.S. government's official web portal to all federal, state and local government web resources and services.